IBE674 LEIB-LEAL

Flight info

Callsign IBE674
Flight time 0h 30m
Altitude 23000
Route BAVER M603 GERVU
Aircraft A319/M-SDE3FGHIRWY/LB1

Departure

Time 2026-05-05 21:04
Airport Ibiza Airport (LEIB)

Arrival

Time 2026-05-05 21:34
Airport Alicante-Elche Miguel Hernández Airport (LEAL)
Time Latitude Longitude Altitude Speed Heading
2026-05-05 20:44 38.87461 1.36997 9 ft 0 kts 332°
2026-05-05 20:54 38.87489 1.36979 9 ft 6 kts 335°
2026-05-05 20:54 38.87523 1.37008 8 ft 7 kts 61°
2026-05-05 20:54 38.87549 1.37069 8 ft 8 kts 62°
2026-05-05 20:55 38.87576 1.37135 10 ft 9 kts 62°
2026-05-05 20:55 38.87605 1.37206 8 ft 9 kts 62°
2026-05-05 20:55 38.87636 1.37282 10 ft 10 kts 62°
2026-05-05 20:55 38.87669 1.37362 9 ft 11 kts 62°
2026-05-05 20:56 38.87700 1.37446 9 ft 8 kts 77°
2026-05-05 20:56 38.87671 1.37494 9 ft 8 kts 152°
2026-05-05 20:56 38.87623 1.37529 9 ft 8 kts 149°
2026-05-05 20:56 38.87581 1.37576 9 ft 8 kts 105°
2026-05-05 20:57 38.87605 1.37638 9 ft 8 kts 59°
2026-05-05 20:57 38.87634 1.37706 11 ft 10 kts 63°
2026-05-05 20:57 38.87671 1.37794 9 ft 12 kts 61°
2026-05-05 20:57 38.87710 1.37887 10 ft 12 kts 62°
2026-05-05 20:58 38.87750 1.37983 9 ft 12 kts 62°
2026-05-05 20:58 38.87790 1.38081 9 ft 13 kts 62°
2026-05-05 20:58 38.87832 1.38184 9 ft 13 kts 62°
2026-05-05 20:58 38.87876 1.38289 9 ft 14 kts 62°
2026-05-05 20:59 38.87921 1.38397 9 ft 14 kts 62°
2026-05-05 20:59 38.87967 1.38508 9 ft 14 kts 62°
2026-05-05 20:59 38.88012 1.38616 10 ft 9 kts 62°
2026-05-05 20:59 38.88031 1.38663 9 ft 6 kts 69°
2026-05-05 21:00 38.88012 1.38698 9 ft 5 kts 154°
2026-05-05 21:00 38.87991 1.38712 11 ft 2 kts 152°
2026-05-05 21:00 38.87990 1.38713 10 ft 0 kts 152°
2026-05-05 21:01 38.87982 1.38719 10 ft 3 kts 152°
2026-05-05 21:02 38.87958 1.38724 13 ft 6 kts 190°
2026-05-05 21:02 38.87901 1.38698 12 ft 7 kts 191°
2026-05-05 21:02 38.87858 1.38694 11 ft 5 kts 204°
2026-05-05 21:02 38.87848 1.38674 12 ft 0 kts 244°
2026-05-05 21:03 38.87846 1.38670 12 ft 7 kts 244°
2026-05-05 21:03 38.87704 1.38327 13 ft 81 kts 242°
2026-05-05 21:03 38.87335 1.37436 15 ft 143 kts 242°
2026-05-05 21:03 38.86843 1.36274 514 ft 149 kts 240°
2026-05-05 21:04 38.86345 1.35116 1169 ft 151 kts 240°
2026-05-05 21:04 38.85850 1.33935 1848 ft 150 kts 240°
2026-05-05 21:04 38.85357 1.32734 2401 ft 159 kts 242°
2026-05-05 21:04 38.84821 1.31400 2842 ft 176 kts 241°
2026-05-05 21:05 38.84245 1.29949 3349 ft 189 kts 242°
2026-05-05 21:05 38.83620 1.28363 3728 ft 209 kts 243°
2026-05-05 21:05 38.83200 1.27236 4194 ft 213 kts 243°
2026-05-05 21:05 38.82670 1.25434 4950 ft 221 kts 259°
2026-05-05 21:06 38.82669 1.23399 5499 ft 241 kts 279°
2026-05-05 21:06 38.82930 1.21170 6017 ft 262 kts 278°
2026-05-05 21:06 38.83257 1.18061 7234 ft 265 kts 278°
2026-05-05 21:06 38.83414 1.16467 7859 ft 269 kts 277°
2026-05-05 21:07 38.83643 1.14081 8801 ft 271 kts 276°
2026-05-05 21:07 38.83873 1.11670 9779 ft 274 kts 276°
2026-05-05 21:07 38.84105 1.09198 10353 ft 290 kts 276°
2026-05-05 21:07 38.84355 1.06529 10770 ft 308 kts 275°
2026-05-05 21:08 38.84613 1.03774 11548 ft 313 kts 275°
2026-05-05 21:08 38.84871 1.01033 12424 ft 314 kts 275°
2026-05-05 21:08 38.85138 0.98209 13342 ft 315 kts 274°
2026-05-05 21:08 38.85398 0.95448 14145 ft 316 kts 274°
2026-05-05 21:09 38.85661 0.92637 14876 ft 318 kts 274°
2026-05-05 21:09 38.85924 0.89801 15586 ft 321 kts 274°
2026-05-05 21:09 38.86189 0.86941 16284 ft 324 kts 274°
2026-05-05 21:09 38.86455 0.84056 16989 ft 327 kts 274°
2026-05-05 21:10 38.86724 0.81143 17689 ft 330 kts 274°
2026-05-05 21:10 38.86998 0.78196 18359 ft 333 kts 273°
2026-05-05 21:10 38.87270 0.75229 18945 ft 337 kts 273°
2026-05-05 21:10 38.87544 0.72228 19520 ft 341 kts 273°
2026-05-05 21:11 38.87716 0.69186 20098 ft 342 kts 266°
2026-05-05 21:11 38.87426 0.66157 20685 ft 343 kts 256°
2026-05-05 21:11 38.86662 0.63249 21269 ft 346 kts 248°
2026-05-05 21:11 38.85755 0.60376 21852 ft 349 kts 248°
2026-05-05 21:12 38.84855 0.57507 22423 ft 352 kts 248°
2026-05-05 21:12 38.83936 0.54573 22838 ft 356 kts 248°
2026-05-05 21:12 38.83019 0.51643 22918 ft 349 kts 248°
2026-05-05 21:12 38.82134 0.48802 22928 ft 340 kts 250°
2026-05-05 21:13 38.81472 0.45904 22932 ft 338 kts 255°
2026-05-05 21:13 38.80865 0.42992 22935 ft 337 kts 254°
2026-05-05 21:13 38.80253 0.40085 22936 ft 337 kts 254°
2026-05-05 21:13 38.79642 0.37180 22940 ft 337 kts 254°
2026-05-05 21:14 38.79033 0.34277 22929 ft 337 kts 255°
2026-05-05 21:14 38.78425 0.31378 22929 ft 337 kts 255°
2026-05-05 21:14 38.77815 0.28478 22935 ft 337 kts 254°
2026-05-05 21:14 38.77203 0.25575 22748 ft 338 kts 254°
2026-05-05 21:15 38.76583 0.22636 22365 ft 354 kts 254°
2026-05-05 21:15 38.75927 0.19531 21965 ft 357 kts 254°
2026-05-05 21:15 38.75287 0.16502 21589 ft 357 kts 254°
2026-05-05 21:15 38.74638 0.13438 21203 ft 355 kts 254°
2026-05-05 21:16 38.73991 0.10393 20823 ft 353 kts 254°
2026-05-05 21:16 38.73347 0.07371 20454 ft 351 kts 254°
2026-05-05 21:16 38.72704 0.04367 20077 ft 349 kts 254°
2026-05-05 21:16 38.72065 0.01380 19708 ft 347 kts 254°
2026-05-05 21:17 38.71429 -0.01589 19380 ft 345 kts 254°
2026-05-05 21:17 38.70793 -0.04553 19026 ft 344 kts 253°
2026-05-05 21:17 38.70158 -0.07498 18677 ft 342 kts 254°
2026-05-05 21:17 38.69528 -0.10426 18335 ft 340 kts 254°
2026-05-05 21:18 38.68902 -0.13341 17953 ft 339 kts 253°
2026-05-05 21:18 38.68279 -0.16239 17550 ft 337 kts 254°
2026-05-05 21:18 38.67660 -0.19120 17167 ft 335 kts 253°
2026-05-05 21:18 38.67041 -0.21990 16725 ft 333 kts 254°
2026-05-05 21:19 38.66425 -0.24839 16336 ft 332 kts 254°
2026-05-05 21:19 38.65809 -0.27680 15960 ft 330 kts 254°
2026-05-05 21:19 38.65206 -0.30469 15583 ft 329 kts 254°
2026-05-05 21:19 38.64597 -0.33276 15211 ft 326 kts 254°
2026-05-05 21:20 38.63988 -0.36068 14847 ft 325 kts 254°
2026-05-05 21:20 38.63383 -0.38843 14489 ft 323 kts 254°
2026-05-05 21:20 38.62780 -0.41608 14123 ft 322 kts 254°
2026-05-05 21:20 38.62181 -0.44357 13779 ft 320 kts 255°
2026-05-05 21:21 38.61584 -0.47101 13383 ft 319 kts 255°
2026-05-05 21:21 38.60989 -0.49835 12988 ft 319 kts 254°
2026-05-05 21:21 38.60392 -0.52569 12596 ft 320 kts 254°
2026-05-05 21:21 38.59793 -0.55305 12208 ft 319 kts 254°
2026-05-05 21:22 38.59193 -0.58035 11833 ft 319 kts 254°
2026-05-05 21:22 38.58593 -0.60770 11450 ft 319 kts 254°
2026-05-05 21:22 38.57993 -0.63501 11079 ft 319 kts 254°
2026-05-05 21:22 38.57393 -0.66232 10711 ft 320 kts 254°
2026-05-05 21:23 38.56789 -0.68969 10348 ft 320 kts 255°
2026-05-05 21:23 38.56187 -0.71686 9990 ft 315 kts 254°
2026-05-05 21:23 38.55597 -0.74342 9734 ft 305 kts 254°
2026-05-05 21:23 38.55025 -0.76916 9476 ft 297 kts 255°
2026-05-05 21:24 38.54466 -0.79422 9209 ft 290 kts 255°
2026-05-05 21:24 38.53889 -0.81863 8951 ft 283 kts 249°
2026-05-05 21:24 38.52775 -0.83896 8694 ft 280 kts 228°
2026-05-05 21:24 38.51433 -0.85631 8439 ft 279 kts 225°
2026-05-05 21:25 38.49993 -0.87298 8176 ft 279 kts 223°
2026-05-05 21:25 38.48543 -0.88937 7933 ft 279 kts 224°
2026-05-05 21:25 38.47108 -0.90599 7646 ft 278 kts 225°
2026-05-05 21:25 38.45602 -0.92146 7295 ft 280 kts 213°
2026-05-05 21:26 38.43927 -0.93411 6954 ft 279 kts 212°
2026-05-05 21:26 38.42139 -0.94332 6607 ft 276 kts 193°
2026-05-05 21:26 38.40267 -0.94570 6261 ft 265 kts 184°
2026-05-05 21:26 38.38456 -0.94693 5898 ft 255 kts 184°
2026-05-05 21:27 38.36716 -0.94683 5538 ft 245 kts 170°
2026-05-05 21:27 38.35141 -0.93968 5273 ft 238 kts 148°
2026-05-05 21:27 38.33915 -0.92644 5072 ft 232 kts 127°
2026-05-05 21:27 38.33137 -0.90919 5013 ft 217 kts 107°
2026-05-05 21:28 38.32801 -0.89105 5004 ft 208 kts 97°
2026-05-05 21:28 38.32557 -0.87306 4735 ft 204 kts 97°
2026-05-05 21:28 38.32318 -0.85539 4470 ft 201 kts 97°
2026-05-05 21:28 38.32079 -0.83791 4204 ft 200 kts 97°
2026-05-05 21:29 38.31841 -0.82050 3936 ft 198 kts 98°
2026-05-05 21:29 38.31605 -0.80324 3675 ft 197 kts 98°
2026-05-05 21:29 38.31369 -0.78604 3417 ft 196 kts 98°
2026-05-05 21:29 38.31137 -0.76919 3164 ft 195 kts 98°
2026-05-05 21:30 38.30905 -0.75228 2901 ft 192 kts 99°
2026-05-05 21:30 38.30677 -0.73573 2650 ft 186 kts 99°
2026-05-05 21:30 38.30454 -0.71957 2408 ft 184 kts 99°
2026-05-05 21:30 38.30234 -0.70359 2163 ft 182 kts 99°
2026-05-05 21:31 38.30016 -0.68779 1925 ft 180 kts 99°
2026-05-05 21:31 38.29804 -0.67248 1688 ft 170 kts 99°
2026-05-05 21:31 38.29606 -0.65816 1467 ft 156 kts 99°
2026-05-05 21:31 38.29425 -0.64514 1260 ft 144 kts 98°
2026-05-05 21:32 38.29260 -0.63300 1056 ft 139 kts 97°
2026-05-05 21:32 38.29099 -0.62103 888 ft 136 kts 98°
2026-05-05 21:32 38.28935 -0.60921 696 ft 135 kts 97°
2026-05-05 21:32 38.28762 -0.59747 528 ft 135 kts 98°
2026-05-05 21:33 38.28602 -0.58571 354 ft 135 kts 98°
2026-05-05 21:33 38.28440 -0.57399 188 ft 134 kts 98°
2026-05-05 21:33 38.28290 -0.56336 115 ft 102 kts 101°
2026-05-05 21:33 38.28199 -0.55671 100 ft 59 kts 100°
2026-05-05 21:34 38.28141 -0.55268 85 ft 34 kts 100°
2026-05-05 21:34 38.28122 -0.55046 81 ft 20 kts 86°
2026-05-05 21:34 38.28154 -0.54856 70 ft 24 kts 71°
2026-05-05 21:34 38.28191 -0.54726 65 ft 9 kts 69°
2026-05-05 21:35 38.28241 -0.54732 62 ft 9 kts 299°
2026-05-05 21:35 38.28252 -0.54795 71 ft 6 kts 280°
2026-05-05 21:35 38.28262 -0.54867 74 ft 12 kts 281°
2026-05-05 21:35 38.28277 -0.54967 77 ft 10 kts 280°
2026-05-05 21:36 38.28287 -0.55046 81 ft 8 kts 279°
2026-05-05 21:36 38.28295 -0.55103 82 ft 5 kts 281°
2026-05-05 21:36 38.28301 -0.55142 85 ft 4 kts 280°
2026-05-05 21:36 38.28306 -0.55175 85 ft 7 kts 279°
2026-05-05 21:37 38.28338 -0.55212 88 ft 8 kts 355°
2026-05-05 21:37 38.28384 -0.55165 89 ft 7 kts 51°
2026-05-05 21:37 38.28423 -0.55154 88 ft 6 kts 332°
2026-05-05 21:37 38.28441 -0.55206 90 ft 7 kts 281°
2026-05-05 21:38 38.28449 -0.55262 89 ft 4 kts 279°
2026-05-05 21:38 38.28454 -0.55285 89 ft 1 kts 297°
2026-05-05 21:38 38.28464 -0.55290 91 ft 2 kts 345°
2026-05-05 21:38 38.28490 -0.55286 90 ft 5 kts 13°
2026-05-05 21:39 38.28513 -0.55281 88 ft 3 kts 10°
2026-05-05 21:39 38.28528 -0.55277 88 ft 1 kts 10°
2026-05-05 21:39 38.28533 -0.55276 88 ft 0 kts 10°